When you browse on this site, cookies collect data to enhance your experience and personalize the content and advertising you see.
Visit our Privacy Policy to learn more. By continuing to use the site, you agree to this use of cookies and data.
  • In United Kingdom
  • List of Countries
  • For 7 days
  • Water Temperature
  • Weather Map
  • Weather Widgets
  • user-avatar
    Login

    Hourly Weather Canberra

    Today, 15 December, Sunday

    Time Temperature Precipitation Wind Pressure Humidity
    00:00 +15°C° 0 mm 1 mps 707 mmHg 92%
    01:00 +15°C° 0 mm 1 mps 706 mmHg 91%
    02:00 +15°C° 0 mm 1 mps 706 mmHg 92%
    03:00 +14°C° 0 mm 1 mps 705 mmHg 94%
    04:00 +13°C° 0 mm 0 mps 705 mmHg 95%
    05:00 +15°C° 0 mm 1 mps 705 mmHg 90%
    06:00 +16°C° 0 mm 1 mps 705 mmHg 84%
    07:00 +18°C° 0 mm 1 mps 705 mmHg 79%
    08:00 +20°C° 0 mm 3 mps 706 mmHg 62%
    09:00 +23°C° 0 mm 4 mps 706 mmHg 46%
    10:00 +27°C° 0 mm 5 mps 706 mmHg 33%
    11:00 +28°C° 0 mm 6 mps 705 mmHg 30%
    12:00 +29°C° 0 mm 6 mps 705 mmHg 27%
    13:00 +30°C° 0 mm 7 mps 704 mmHg 24%
    14:00 +30°C° 0 mm 7 mps 704 mmHg 22%
    15:00 +30°C° 0 mm 6 mps 704 mmHg 21%
    16:00 +30°C° 0 mm 6 mps 704 mmHg 19%
    17:00 +28°C° 0 mm 5 mps 704 mmHg 22%
    18:00 +26°C° 0 mm 4 mps 704 mmHg 24%
    19:00 +24°C° 0 mm 3 mps 704 mmHg 26%
    20:00 +23°C° 0 mm 2 mps 704 mmHg 29%
    21:00 +20°C° 0 mm 2 mps 704 mmHg 32%
    22:00 +18°C° 0 mm 2 mps 704 mmHg 36%
    23:00 +18°C° 0 mm 1 mps 704 mmHg 36%

    Tomorrow, 16 December, Monday

    Time Temperature Precipitation Wind Pressure Humidity
    00:00 +16°C° 0 mm 1 mps 704 mmHg 37%
    01:00 +15°C° 0 mm 1 mps 704 mmHg 38%
    02:00 +14°C° 0 mm 1 mps 704 mmHg 40%
    03:00 +14°C° 0 mm 1 mps 704 mmHg 42%
    04:00 +12°C° 0 mm 0 mps 704 mmHg 44%
    05:00 +15°C° 0 mm 1 mps 705 mmHg 42%
    06:00 +18°C° 0 mm 1 mps 706 mmHg 39%
    07:00 +20°C° 0 mm 1 mps 707 mmHg 36%
    08:00 +23°C° 0 mm 1 mps 707 mmHg 32%
    09:00 +26°C° 0 mm 1 mps 708 mmHg 27%
    10:00 +28°C° 0 mm 2 mps 708 mmHg 22%
    11:00 +30°C° 0 mm 2 mps 708 mmHg 21%
    12:00 +31°C° 0 mm 2 mps 708 mmHg 20%
    13:00 +34°C° 0 mm 2 mps 708 mmHg 19%
    14:00 +31°C° 0 mm 3 mps 708 mmHg 25%
    15:00 +30°C° 0 mm 4 mps 708 mmHg 30%
    16:00 +28°C° 0 mm 6 mps 708 mmHg 36%
    17:00 +25°C° 0 mm 5 mps 708 mmHg 47%
    18:00 +21°C° 0 mm 5 mps 708 mmHg 58%
    19:00 +17°C° 0 mm 4 mps 709 mmHg 70%
    20:00 +15°C° 0 mm 4 mps 709 mmHg 76%
    21:00 +13°C° 0 mm 3 mps 710 mmHg 82%
    22:00 +13°C° 0 mm 2 mps 710 mmHg 88%
    23:00 +12°C° 0 mm 2 mps 710 mmHg 90%

    Day after tomorrow, 17 December, Tuesday

    Time Temperature Precipitation Wind Pressure Humidity
    00:00 +12°C° 0 mm 2 mps 710 mmHg 92%
    01:00 +11°C° 0 mm 1 mps 710 mmHg 93%
    02:00 +11°C° 0 mm 1 mps 710 mmHg 93%
    03:00 +11°C° 0 mm 1 mps 710 mmHg 93%
    04:00 +11°C° 0 mm 1 mps 710 mmHg 93%
    05:00 +13°C° 0 mm 1 mps 710 mmHg 82%
    06:00 +15°C° 0 mm 1 mps 711 mmHg 72%
    07:00 +18°C° 0 mm 1 mps 712 mmHg 62%
    08:00 +22°C° 0 mm 1 mps 712 mmHg 51%
    09:00 +25°C° 0 mm 1 mps 712 mmHg 41%
    10:00 +29°C° 0 mm 2 mps 713 mmHg 31%
    11:00 +30°C° 0 mm 2 mps 712 mmHg 27%
    12:00 +32°C° 0 mm 2 mps 712 mmHg 23%
    13:00 +35°C° 0 mm 2 mps 712 mmHg 19%
    14:00 +35°C° 0 mm 2 mps 712 mmHg 19%
    15:00 +35°C° 0 mm 3 mps 711 mmHg 19%
    16:00 +35°C° 0 mm 4 mps 711 mmHg 19%
    17:00 +30°C° 0 mm 4 mps 711 mmHg 28%
    18:00 +27°C° 0 mm 4 mps 711 mmHg 37%
    19:00 +22°C° 0 mm 4 mps 711 mmHg 45%
    20:00 +20°C° 0 mm 3 mps 712 mmHg 53%
    21:00 +18°C° 0 mm 3 mps 712 mmHg 61%
    22:00 +15°C° 0 mm 2 mps 712 mmHg 69%
    23:00 +15°C° 0 mm 1 mps 712 mmHg 70%

    18 December, Wednesday

    Time Temperature Precipitation Wind Pressure Humidity
    00:00 +14°C° 0 mm 1 mps 711 mmHg 72%
    01:00 +13°C° 0 mm 1 mps 711 mmHg 74%
    02:00 +13°C° 0 mm 1 mps 711 mmHg 73%
    03:00 +13°C° 0 mm 1 mps 711 mmHg 73%
    04:00 +13°C° 0 mm 1 mps 711 mmHg 72%
    05:00 +16°C° 0 mm 1 mps 711 mmHg 62%
    06:00 +18°C° 0 mm 0 mps 712 mmHg 52%
    07:00 +21°C° 0 mm 0 mps 712 mmHg 41%
    08:00 +26°C° 0 mm 1 mps 712 mmHg 34%
    09:00 +30°C° 0 mm 1 mps 713 mmHg 27%
    10:00 +34°C° 0 mm 2 mps 713 mmHg 21%
    11:00 +36°C° 0 mm 3 mps 712 mmHg 18%
    12:00 +37°C° 0 mm 3 mps 712 mmHg 16%
    13:00 +40°C° 0 mm 4 mps 711 mmHg 14%
    14:00 +40°C° 0 mm 4 mps 711 mmHg 13%
    15:00 +40°C° 0 mm 4 mps 711 mmHg 13%
    16:00 +40°C° 0 mm 4 mps 710 mmHg 13%
    17:00 +36°C° 0 mm 3 mps 710 mmHg 17%
    18:00 +33°C° 0 mm 3 mps 710 mmHg 22%
    19:00 +30°C° 0 mm 2 mps 710 mmHg 26%
    20:00 +27°C° 0 mm 1 mps 710 mmHg 32%
    21:00 +25°C° 0 mm 1 mps 710 mmHg 39%
    22:00 +23°C° 0 mm 1 mps 710 mmHg 45%
    23:00 +22°C° 0 mm 1 mps 710 mmHg 47%

    19 December, Thursday

    Time Temperature Precipitation Wind Pressure Humidity
    00:00 +21°C° 0 mm 1 mps 709 mmHg 49%
    01:00 +18°C° 0 mm 0 mps 709 mmHg 51%
    02:00 +18°C° 0 mm 0 mps 709 mmHg 50%
    03:00 +18°C° 0 mm 0 mps 708 mmHg 50%
    04:00 +17°C° 0 mm 0 mps 708 mmHg 50%
    05:00 +22°C° 0 mm 1 mps 708 mmHg 43%
    06:00 +25°C° 0 mm 1 mps 709 mmHg 36%
    07:00 +28°C° 0 mm 2 mps 710 mmHg 30%
    08:00 +31°C° 0 mm 3 mps 710 mmHg 25%
    09:00 +35°C° 0 mm 5 mps 710 mmHg 20%
    10:00 +39°C° 0 mm 7 mps 710 mmHg 16%
    11:00 +40°C° 0 mm 7 mps 710 mmHg 14%
    12:00 +41°C° 0 mm 7 mps 710 mmHg 13%
    13:00 +42°C° 0 mm 6 mps 709 mmHg 12%
    14:00 +44°C° 0 mm 6 mps 709 mmHg 11%
    15:00 +43°C° 0 mm 5 mps 709 mmHg 11%
    16:00 +43°C° 0 mm 5 mps 709 mmHg 11%
    17:00 +39°C° 0 mm 5 mps 709 mmHg 18%
    18:00 +33°C° 0 mm 5 mps 709 mmHg 24%
    19:00 +27°C° 0 mm 5 mps 709 mmHg 31%
    20:00 +25°C° 0 mm 4 mps 710 mmHg 38%
    21:00 +22°C° 0 mm 4 mps 710 mmHg 44%
    22:00 +19°C° 0 mm 3 mps 711 mmHg 50%
    23:00 +19°C° 0 mm 2 mps 711 mmHg 52%

    20 December, Friday

    Time Temperature Precipitation Wind Pressure Humidity
    00:00 +18°C° 0 mm 2 mps 710 mmHg 55%
    01:00 +17°C° 0 mm 2 mps 710 mmHg 57%
    02:00 +18°C° 0 mm 1 mps 710 mmHg 58%
    03:00 +16°C° 0 mm 1 mps 710 mmHg 59%
    04:00 +16°C° 0 mm 1 mps 709 mmHg 60%
    05:00 +20°C° 0 mm 1 mps 710 mmHg 52%
    06:00 +22°C° 0 mm 1 mps 710 mmHg 43%
    07:00 +25°C° 0 mm 1 mps 711 mmHg 35%
    08:00 +29°C° 0 mm 1 mps 711 mmHg 29%
    09:00 +32°C° 0 mm 2 mps 711 mmHg 23%
    10:00 +37°C° 0 mm 2 mps 711 mmHg 17%
    11:00 +39°C° 0 mm 3 mps 711 mmHg 15%
    12:00 +42°C° 0 mm 4 mps 710 mmHg 13%
    13:00 +45°C° 0 mm 5 mps 710 mmHg 10%
    14:00 +45°C° 0 mm 5 mps 709 mmHg 10%
    15:00 +44°C° 0 mm 4 mps 709 mmHg 10%
    16:00 +45°C° 0 mm 4 mps 708 mmHg 10%
    17:00 +40°C° 0 mm 3 mps 708 mmHg 17%
    18:00 +36°C° 0 mm 3 mps 708 mmHg 25%
    19:00 +33°C° 0 mm 3 mps 707 mmHg 32%
    20:00 +29°C° 0 mm 2 mps 707 mmHg 44%
    21:00 +26°C° 0 mm 1 mps 707 mmHg 55%
    22:00 +23°C° 0 mm 1 mps 707 mmHg 67%
    23:00 +23°C° 0 mm 1 mps 706 mmHg 66%
    Show more